Location: Newark
(41.8922°N, 9.0050°E)
Time: 01:15:42
(UTC+00:00)

ISS - Pass Details

Date: 28 January 2020
Orbit: 415 x 422 km, 51.6° (Epoch: 22 February)

Event Time Altitude Azimuth Distance (km) Brightness Sun altitude
Rises 17:24:15 0° 281° (WNW) 2,376 1.3 -9.8°
Reaches altitude 10° 17:26:48 10° 301° (WNW) 1,511 -0.3 -10.2°
Maximum altitude 17:29:16 19° 348° (NNW) 1,096 -1.7 -10.7°
Enters shadow 17:31:39 10° 34° (NNE) 1,484 -1.4 -11.1°
